Wind_Speed
65 67 72 72 70 68 70 68 74 83 88 95 94 97 95 103 109 112 113 109 111 104 98 97 98 99 98 97 97 95 97 100 97 94 89 90 98 92 89 88 88 89 86 81
69 75 74 75 70 67 63 59 65 68 78 87 86 87 89 101 109 114 118 113 114 114 111 104 101 101 101 99 96 94 95 101 99 97 94 90 89 86 86 88 84 85 82 78
75 76 74 74 70 66 61 52 57 60 67 74 79 77 86 92 99 109 117 116 115 115 116 116 110 108 107 104 101 98 100 102 97 95 93 89 85 82 78 76 73 79 75 74
78 76 73 70 65 61 56 48 49 49 54 55 65 58 73 79 85 98 112 109 111 114 117 117 116 117 115 112 109 104 102 103 100 97 93 89 86 82 80 76 71 72 69 67
75 73 70 62 60 58 57 50 50 44 44 45 45 46 57 63 68 81 93 100 108 113 115 116 117 118 119 121 117 114 109 106 104 100 96 92 88 83 78 74 73 73 72 69
70 69 65 57 54 55 53 47 45 46 40 42 36 41 46 49 55 65 70 86 92 100 110 113 118 118 117 122 123 121 117 112 110 105 100 94 89 86 81 74 68 67 70 70
71 70 64 55 50 48 51 49 39 46 39 36 35 37 42 43 46 56 63 73 76 83 90 99 108 114 116 117 122 124 120 116 114 111 105 99 91 87 80 73 67 61 70 67
66 63 67 58 53 41 45 46 45 40 42 35 34 34 41 43 42 51 55 62 64 70 76 84 93 99 107 112 115 119 121 119 116 115 111 106 96 90 80 69 60 58 61 63
71 65 66 62 49 54 44 51 46 47 44 37 37 34 36 39 42 41 53 56 57 62 68 75 80 87 94 98 105 113 118 116 118 117 114 110 103 94 81 71 57 49 54 46
70 62 69 67 55 55 46 55 47 49 43 38 39 36 37 38 44 45 50 56 58 59 63 66 71 74 78 84 90 98 105 112 114 117 115 112 105 97 87 72 56 38 50 65
70 67 64 69 68 54 58 55 51 46 48 37 38 37 38 39 41 50 49 48 49 57 62 64 64 66 69 75 79 84 93 102 103 108 112 110 106 99 91 80 73 66 62 55
71 70 68 69 70 67 67 64 56 47 47 38 35 38 41 41 43 44 49 44 47 52 55 58 58 62 66 68 67 72 80 87 94 100 103 110 104 99 91 85 79 72 79 76
76 73 70 64 73 69 62 64 55 47 42 36 33 37 46 41 41 41 43 41 45 41 44 45 49 51 57 61 64 64 68 75 83 89 94 99 99 98 93 84 77 67 65 72
75 73 76 74 74 70 63 62 52 42 37 35 31 35 43 39 39 39 37 38 41 42 37 37 39 43 46 50 58 57 61 68 73 78 82 87 87 91 94 88 83 69 55 49
78 75 72 75 77 71 61 53 47 37 34 28 34 29 38 37 38 35 36 36 35 38 39 36 37 38 41 44 51 53 56 63 68 66 66 70 74 85 91 88 81 76 69 53
83 81 75 76 79 65 58 47 40 32 28 26 28 30 33 35 36 32 35 33 33 35 35 30 33 37 38 41 47 47 51 58 60 57 58 60 72 82 87 89 84 76 63 43
83 83 79 75 70 62 52 37 32 26 23 22 24 27 31 32 33 31 32 31 29 31 30 25 29 34 35 40 46 45 47 53 52 53 62 74 76 80 85 85 81 77 69 48
79 76 75 69 55 48 36 32 26 22 24 20 18 23 26 24 23 23 18 22 22 22 22 23 26 29 35 39 44 42 44 46 49 53 60 67 72 79 84 88 86 74 68 65
72 70 73 57 48 41 30 26 19 19 21 12 14 15 11 7 7 11 11 12 15 16 16 18 19 24 33 35 38 38 41 45 49 57 62 67 75 83 89 91 86 73 70 70
76 68 61 52 43 32 23 18 15 13 13 5 4 5 2 1 6 10 10 12 13 14 15 16 21 25 31 33 35 36 40 45 52 58 64 67 79 89 94 92 91 83 67 59
63 57 47 41 30 21 15 14 8 7 5 10 5 2 5 7 6 14 9 12 11 14 13 16 22 25 26 29 34 36 36 44 56 61 66 74 85 90 92 91 86 78 65 65
51 41 34 27 18 13 11 5 3 11 9 5 3 6 8 8 11 12 15 14 18 19 17 18 20 21 23 29 33 37 46 53 59 61 67 77 86 90 91 83 79 78 76 67
37 30 23 15 10 6 4 7 12 9 4 5 3 4 5 9 12 13 13 16 18 20 19 19 19 22 25 28 39 46 53 60 61 65 74 81 90 94 90 82 78 81 75 65
26 18 11 7 4 3 12 16 13 9 3 6 3 6 10 6 7 8 8 10 11 13 13 16 21 26 31 36 42 50 58 62 66 72 81 89 90 87 87 79 72 64 59 58
14 8 3 1 5 15 19 15 9 2 2 9 16 13 11 9 9 9 13 9 3 4 13 17 22 27 35 40 45 56 63 66 72 80 90 93 93 95 71 65 69 66 59 56
4 1 3 7 18 19 16 9 4 10 23 21 17 14 14 13 5 17 17 12 8 10 16 20 23 27 31 38 51 61 69 78 80 90 94 98 93 82 73 65 66 59 47 48
Wind_Direction
302 303 306 302 301 296 290 279 268 264 261 256 253 252 248 247 246 247 245 243 245 244 240 239 240 241 242 244 244 245 246 248 247 248 245 239 244 250 254 256 260 263 265 266
312 312 310 307 304 300 293 285 276 269 264 261 257 251 249 245 242 242 244 242 242 242 243 240 239 240 241 241 241 242 243 245 245 246 246 246 248 250 253 256 259 262 264 264
316 314 313 311 305 300 297 288 278 271 266 267 260 255 250 246 243 242 241 241 240 240 240 241 241 241 241 241 240 238 241 243 245 245 245 245 246 248 251 255 258 258 260 261
319 317 315 309 304 302 302 296 286 280 276 272 266 262 257 252 246 245 243 241 241 243 241 238 239 240 241 241 241 239 239 242 243 244 245 245 245 244 245 250 251 257 260 262
321 319 319 313 308 307 310 310 304 297 288 278 271 258 254 250 247 244 244 242 241 241 241 240 238 236 239 241 240 241 240 241 242 243 243 244 245 244 244 246 250 256 261 265
321 319 314 310 307 307 310 313 312 305 300 289 273 258 254 250 245 245 244 243 242 241 240 240 240 238 236 238 240 239 239 239 240 241 242 241 243 244 243 242 250 258 260 263
326 321 318 314 312 314 313 316 317 318 309 295 274 263 257 248 245 243 243 246 244 243 242 241 240 240 239 237 238 239 238 237 239 241 241 241 241 242 243 243 244 241 259 267
327 320 318 318 315 315 322 328 328 323 313 299 277 268 261 263 254 254 248 248 245 244 244 242 240 241 241 239 237 238 239 236 237 238 239 239 239 240 240 240 240 249 259 264
327 325 323 324 323 322 331 331 330 324 315 302 283 267 269 263 259 246 255 253 248 245 245 245 243 242 240 239 238 237 239 237 235 236 237 237 236 237 236 237 240 243 256 259
325 328 321 324 321 320 325 329 328 326 315 300 285 274 267 264 262 259 256 251 252 251 249 246 246 246 244 241 236 235 236 239 235 234 234 235 234 234 233 229 226 229 245 255
323 326 322 324 322 322 327 325 326 325 313 299 281 275 269 260 254 256 258 259 261 257 251 248 247 246 245 243 239 235 235 236 236 234 233 234 232 229 229 226 222 216 216 221
321 322 321 324 321 323 326 322 321 318 309 297 279 275 263 260 254 265 268 266 258 258 258 257 251 247 243 242 239 237 236 234 235 233 231 230 230 228 226 224 224 223 227 234
320 321 320 322 320 320 323 319 315 313 302 287 273 264 267 264 262 259 267 267 266 262 253 252 254 250 246 243 238 236 234 232 231 230 228 228 227 226 223 221 220 222 230 236
319 321 319 319 317 320 318 312 308 307 293 282 274 262 264 269 268 270 266 259 258 261 258 251 246 243 243 240 238 230 230 230 229 227 224 226 224 221 219 215 214 210 219 235
318 321 317 316 316 319 312 306 304 297 287 280 272 268 266 269 271 271 263 258 260 259 253 249 246 241 238 235 233 227 225 223 225 224 219 216 217 217 215 209 209 207 212 229
318 318 316 317 316 314 309 307 297 292 284 274 270 270 269 269 274 274 270 267 259 255 256 245 242 245 235 229 230 225 221 220 218 214 206 202 209 207 207 203 203 204 202 214
316 316 313 314 316 312 308 306 295 287 276 269 266 266 272 275 276 276 272 269 263 255 256 247 238 235 234 226 225 223 219 215 210 201 193 200 207 197 199 194 194 200 199 206
313 310 309 316 312 309 314 300 297 286 283 283 278 274 275 284 283 281 265 252 255 255 252 239 227 227 227 223 224 216 210 205 200 186 188 197 193 191 191 186 192 197 199 215
309 310 312 315 319 314 313 299 294 284 286 298 282 283 283 274 279 266 269 258 262 257 257 251 238 227 222 216 217 205 198 196 183 184 187 189 188 185 183 186 188 190 193 203
310 310 312 313 310 310 304 296 292 281 287 300 146 166 187 353 300 219 266 245 251 258 258 248 237 220 220 212 208 196 190 184 182 185 186 181 182 180 180 182 184 184 194 203
309 309 309 306 307 306 298 297 273 256 177 151 144 295 272 279 281 307 242 253 263 247 248 242 230 220 213 205 197 190 180 176 178 184 181 177 179 175 176 180 186 195 210 219
310 307 307 307 305 302 296 283 211 141 138 135 160 274 307 314 324 315 298 261 234 238 230 224 219 206 200 193 185 172 173 171 179 177 173 174 172 170 175 177 184 193 202 211
309 309 309 306 300 292 270 142 136 105 125 210 292 358 22 17 350 336 310 278 248 236 221 204 196 190 183 176 179 171 168 170 172 169 169 168 168 170 171 179 188 198 205 213
311 308 305 309 288 212 153 146 140 168 202 343 357 99 92 65 20 349 339 303 272 257 223 198 188 180 171 175 175 168 166 167 164 164 163 165 166 166 174 184 188 196 203 205
309 306 308 260 179 148 149 155 172 211 54 118 122 116 117 98 45 27 42 22 15 196 193 188 181 173 171 175 167 162 161 159 156 158 161 161 166 171 177 185 194 201 204 208
293 82 110 153 142 143 147 149 87 108 130 120 108 111 108 81 88 84 69 80 97 147 166 164 166 166 167 167 157 153 154 150 151 157 159 166 171 175 182 184 187 193 198 209
Height
10725 10716 10705 10693 10684 10673 10659 10652 10649 10644 10642 10632 10644 10647 10670 10666 10664 10673 10677 10694 10696 10709 10720 10730 10736 10744 10753 10763 10773 10787 10791 10789 10802 10814 10832 10853 10854 10853 10853 10859 10866 10865 10870 10873
10703 10693 10681 10665 10655 10646 10632 10629 10620 10619 10610 10603 10615 10620 10632 10624 10629 10636 10641 10661 10669 10679 10690 10703 10714 10721 10729 10740 10752 10764 10769 10764 10781 10792 10806 10822 10828 10836 10842 10848 10857 10852 10856 10857
10682 10671 10658 10644 10631 10624 10609 10607 10597 10594 10587 10581 10580 10593 10589 10596 10602 10605 10609 10626 10639 10649 10661 10673 10690 10697 10704 10716 10727 10742 10746 10747 10762 10774 10786 10802 10814 10824 10830 10839 10845 10835 10842 10843
10661 10648 10639 10626 10613 10604 10594 10584 10576 10573 10566 10564 10553 10570 10562 10567 10579 10581 10577 10605 10614 10620 10630 10644 10659 10671 10678 10688 10701 10717 10728 10730 10743 10754 10767 10782 10797 10809 10818 10826 10832 10825 10828 10832
10643 10633 10619 10605 10596 10586 10576 10566 10555 10550 10546 10541 10543 10546 10538 10543 10551 10547 10556 10571 10575 10586 10598 10613 10626 10642 10651 10659 10674 10686 10703 10714 10724 10736 10750 10765 10778 10793 10804 10817 10822 10820 10822 10824
10632 10619 10610 10599 10586 10574 10566 10556 10544 10535 10532 10525 10527 10524 10525 10528 10529 10531 10536 10537 10549 10557 10569 10582 10592 10607 10626 10630 10640 10656 10673 10692 10700 10713 10729 10745 10761 10773 10788 10804 10813 10818 10816 10816
10616 10599 10591 10583 10573 10560 10549 10540 10535 10524 10520 10516 10512 10509 10506 10512 10515 10514 10517 10518 10531 10536 10544 10555 10563 10576 10591 10608 10614 10625 10646 10667 10680 10692 10710 10727 10745 10757 10775 10794 10810 10823 10813 10812
10612 10595 10576 10566 10556 10550 10537 10526 10519 10515 10507 10506 10502 10501 10491 10496 10504 10501 10505 10505 10510 10516 10523 10529 10539 10550 10561 10579 10595 10603 10615 10640 10657 10669 10686 10705 10726 10744 10765 10785 10803 10809 10809 10804
10595 10579 10563 10553 10547 10531 10527 10512 10507 10503 10497 10493 10488 10490 10487 10486 10488 10494 10488 10491 10498 10501 10503 10510 10517 10525 10536 10551 10569 10581 10587 10608 10627 10643 10663 10681 10706 10730 10755 10776 10795 10803 10797 10795
10583 10579 10547 10544 10534 10522 10515 10506 10500 10491 10486 10482 10477 10478 10478 10477 10476 10475 10477 10478 10481 10484 10485 10493 10497 10508 10518 10525 10541 10556 10565 10571 10597 10618 10638 10656 10687 10714 10739 10765 10785 10778 10797 10801
10570 10561 10548 10531 10513 10512 10502 10491 10483 10482 10471 10470 10465 10464 10464 10464 10464 10461 10462 10467 10472 10467 10467 10474 10482 10489 10497 10503 10516 10530 10539 10550 10569 10592 10615 10636 10662 10692 10720 10747 10764 10776 10772 10777
10555 10547 10537 10524 10504 10496 10488 10479 10472 10465 10461 10456 10453 10451 10448 10450 10450 10451 10445 10456 10456 10454 10455 10456 10464 10471 10475 10482 10496 10508 10519 10531 10545 10564 10588 10610 10637 10672 10701 10724 10743 10758 10760 10760
10537 10528 10520 10518 10491 10481 10474 10464 10456 10451 10445 10441 10441 10439 10430 10436 10438 10442 10442 10442 10439 10441 10441 10445 10448 10452 10458 10465 10474 10487 10499 10507 10522 10539 10562 10584 10617 10650 10679 10707 10722 10734 10747 10748
10526 10516 10497 10490 10479 10469 10463 10447 10438 10435 10429 10426 10427 10424 10418 10422 10425 10428 10430 10427 10425 10424 10428 10430 10433 10436 10441 10449 10456 10469 10479 10491 10503 10521 10545 10573 10606 10631 10654 10682 10700 10718 10730 10734
10506 10503 10488 10474 10459 10453 10443 10433 10424 10419 10413 10415 10408 10414 10408 10412 10414 10416 10416 10417 10414 10412 10414 10418 10419 10424 10428 10435 10440 10451 10463 10473 10487 10511 10543 10567 10597 10610 10633 10661 10684 10703 10715 10726
10487 10478 10470 10460 10442 10432 10425 10417 10408 10405 10403 10403 10401 10400 10400 10405 10404 10403 10401 10399 10399 10399 10400 10407 10411 10412 10417 10423 10428 10438 10449 10460 10478 10502 10528 10547 10544 10573 10611 10640 10665 10690 10708 10714
10472 10458 10447 10444 10427 10416 10407 10401 10396 10394 10393 10393 10393 10393 10394 10395 10394 10394 10391 10389 10387 10387 10391 10397 10401 10403 10408 10412 10414 10426 10438 10452 10470 10491 10506 10519 10532 10564 10593 10630 10657 10675 10694 10700
10461 10446 10433 10426 10414 10401 10398 10389 10388 10385 10384 10385 10386 10387 10386 10387 10386 10383 10382 10379 10379 10380 10382 10386 10388 10392 10396 10400 10406 10416 10428 10446 10462 10482 10494 10509 10533 10556 10588 10614 10636 10663 10681 10683
10445 10434 10416 10408 10398 10391 10388 10383 10381 10379 10377 10380 10380 10381 10382 10380 10380 10377 10376 10375 10374 10374 10375 10376 10380 10384 10387 10392 10399 10411 10424 10437 10456 10468 10482 10497 10526 10552 10580 10603 10629 10650 10660 10665
10420 10413 10403 10393 10388 10383 10381 10377 10376 10373 10372 10374 10377 10377 10376 10376 10375 10375 10374 10372 10371 10370 10370 10370 10373 10376 10380 10387 10395 10408 10421 10434 10447 10458 10478 10500 10523 10547 10573 10600 10620 10639 10645 10651
10407 10398 10390 10381 10379 10377 10374 10373 10371 10371 10372 10373 10374 10374 10373 10373 10372 10370 10369 10369 10366 10365 10365 10365 10365 10370 10376 10385 10393 10406 10421 10431 10447 10458 10478 10497 10521 10548 10577 10603 10628 10640 10646 10655
10391 10386 10380 10375 10372 10371 10370 10369 10368 10369 10371 10372 10372 10371 10371 10369 10368 10366 10364 10361 10359 10358 10358 10359 10362 10367 10372 10381 10394 10406 10417 10433 10445 10463 10483 10504 10529 10556 10582 10602 10613 10628 10636 10644
10380 10375 10371 10369 10367 10367 10366 10367 10369 10370 10371 10371 10370 10370 10368 10368 10366 10362 10358 10355 10353 10352 10353 10355 10360 10364 10371 10383 10393 10405 10419 10431 10447 10467 10486 10512 10536 10559 10586 10595 10609 10618 10626 10637
10372 10368 10366 10365 10365 10364 10365 10368 10370 10371 10371 10371 10371 10370 10369 10367 10363 10359 10354 10350 10350 10351 10352 10353 10358 10363 10373 10382 10395 10408 10420 10435 10454 10474 10495 10518 10547 10570 10586 10590 10598 10608 10624 10634
10366 10363 10364 10363 10363 10365 10367 10370 10372 10372 10372 10372 10372 10371 10369 10367 10363 10360 10353 10350 10349 10349 10350 10354 10359 10366 10374 10384 10399 10413 10427 10445 10466 10485 10506 10535 10555 10566 10576 10592 10604 10614 10624 10633
10362 10362 10362 10363 10365 10368 10370 10373 10374 10374 10375 10376 10377 10376 10373 10368 10367 10359 10356 10353 10351 10351 10352 10355 10362 10369 10380 10393 10409 10424 10440 10457 10476 10497 10520 10537 10549 10561 10574 10587 10603 10615 10626 10632